owner,sensor,date,latitude,longitude,vertical_datum,wind_speed,wind_to_direction,wind_speed_of_gust,qcFlag 
TCOON,ioos:station:TCOON:068:1,2008-04-01T00:00:00Z,27.2970,-97.4049,0.0,8.0,117.0,10.7,'11111222,11111222,11111222' 
TCOON,ioos:station:TCOON:068:1,2008-04-01T01:00:00Z,27.2970,-97.4049,0.0,8.0,118.0,9.8,'11111222,11111222,11111222' 
TCOON,ioos:station:TCOON:068:1,2008-04-01T03:00:00Z,27.2970,-97.4049,0.0,8.2,121.0,10.4,'11111222,11111222,11111222' 
TCOON,ioos:station:TCOON:068:1,2008-04-01T04:00:00Z,27.2970,-97.4049,0.0,7.5,130.0,9.6,'11111222,11111222,11111222' 
TCOON,ioos:station:TCOON:068:1,2008-04-01T05:00:00Z,27.2970,-97.4049,0.0,6.5,129.0,8.8,'11111222,11111222,11111222' 
TCOON,ioos:station:TCOON:068:1,2008-04-01T06:00:00Z,27.2970,-97.4049,0.0,7.0,129.0,8.7,'11111222,11111222,11111222' 
TCOON,ioos:station:TCOON:068:1,2008-04-01T07:00:00Z,27.2970,-97.4049,0.0,6.3,131.0,8.0,'11111222,11111222,11111222' 
TCOON,ioos:station:TCOON:068:1,2008-04-01T09:00:00Z,27.2970,-97.4049,0.0,6.9,123.0,8.4,'11111222,11111222,11111222' 
TCOON,ioos:station:TCOON:068:1,2008-04-01T10:00:00Z,27.2970,-97.4049,0.0,6.0,116.0,7.0,'11111222,11111222,11111222' 
TCOON,ioos:station:TCOON:068:1,2008-04-01T11:00:00Z,27.2970,-97.4049,0.0,5.3,120.0,6.4,'11111222,11111222,11111222' 
TCOON,ioos:station:TCOON:068:1,2008-04-01T12:00:00Z,27.2970,-97.4049,0.0,4.4,117.0,5.8,'11111222,11111222,11111222' 
TCOON,ioos:station:TCOON:068:1,2008-04-01T13:00:00Z,27.2970,-97.4049,0.0,5.8,121.0,6.8,'11111222,11111222,11111222' 
TCOON,ioos:station:TCOON:068:1,2008-04-01T14:00:00Z,27.2970,-97.4049,0.0,4.5,105.0,5.3,'11111222,11111222,11111222' 
TCOON,ioos:station:TCOON:068:1,2008-04-01T15:00:00Z,27.2970,-97.4049,0.0,5.2,111.0,6.2,'11111222,11111222,11111222' 
TCOON,ioos:station:TCOON:068:1,2008-04-01T16:00:00Z,27.2970,-97.4049,0.0,5.9,109.0,7.7,'11111222,11111222,11111222' 
TCOON,ioos:station:TCOON:068:1,2008-04-01T17:00:00Z,27.2970,-97.4049,0.0,6.4,105.0,8.0,'11111222,11111222,11111222' 
TCOON,ioos:station:TCOON:068:1,2008-04-01T18:00:00Z,27.2970,-97.4049,0.0,5.9,109.0,7.3,'11111222,11111222,11111222' 
TCOON,ioos:station:TCOON:068:1,2008-04-01T19:00:00Z,27.2970,-97.4049,0.0,6.3,105.0,7.6,'11111222,11111222,11111222' 
TCOON,ioos:station:TCOON:068:1,2008-04-01T20:00:00Z,27.2970,-97.4049,0.0,5.8,93.0,6.7,'11111222,11111222,11111222' 
TCOON,ioos:station:TCOON:068:1,2008-04-01T23:00:00Z,27.2970,-97.4049,0.0,6.1,90.0,6.8,'11111222,11111222,11111222' 
TCOON,ioos:station:TCOON:068:1,2008-04-02T00:00:00Z,27.2970,-97.4049,0.0,6.3,90.0,7.6,'11111222,11111222,11111222' 
TCOON,ioos:station:TCOON:068:1,2008-04-02T01:00:00Z,27.2970,-97.4049,0.0,5.2,75.0,5.8,'11111222,11111222,11111222' 
TCOON,ioos:station:TCOON:068:1,2008-04-02T02:00:00Z,27.2970,-97.4049,0.0,5.7,83.0,7.1,'11111222,11111222,11111222' 
TCOON,ioos:station:TCOON:068:1,2008-04-02T03:00:00Z,27.2970,-97.4049,0.0,4.8,66.0,5.5,'11111222,11111222,11111222' 
TCOON,ioos:station:TCOON:068:1,2008-04-02T04:00:00Z,27.2970,-97.4049,0.0,5.5,76.0,6.3,'11111222,11111222,11111222' 
TCOON,ioos:station:TCOON:068:1,2008-04-02T05:00:00Z,27.2970,-97.4049,0.0,5.6,68.0,6.5,'11111222,11111222,11111222' 
TCOON,ioos:station:TCOON:068:1,2008-04-02T06:00:00Z,27.2970,-97.4049,0.0,5.4,67.0,6.7,'11111222,11111222,11111222' 
TCOON,ioos:station:TCOON:068:1,2008-04-02T07:00:00Z,27.2970,-97.4049,0.0,7.2,78.0,8.5,'11111222,11111222,11111222' 
TCOON,ioos:station:TCOON:068:1,2008-04-02T08:00:00Z,27.2970,-97.4049,0.0,6.0,73.0,7.5,'11111222,11111222,11111222' 
TCOON,ioos:station:TCOON:068:1,2008-04-02T09:00:00Z,27.2970,-97.4049,0.0,4.6,59.0,5.2,'11111222,11111222,11111222' 
TCOON,ioos:station:TCOON:068:1,2008-04-02T10:00:00Z,27.2970,-97.4049,0.0,4.5,41.0,5.1,'11111222,11111222,11111222' 
TCOON,ioos:station:TCOON:068:1,2008-04-02T11:00:00Z,27.2970,-97.4049,0.0,4.0,54.0,4.4,'11111222,11111222,11111222' 
TCOON,ioos:station:TCOON:068:1,2008-04-02T12:00:00Z,27.2970,-97.4049,0.0,5.1,66.0,16.7,'11111222,11111222,11111222' 
TCOON,ioos:station:TCOON:068:1,2008-04-02T13:00:00Z,27.2970,-97.4049,0.0,3.0,76.0,3.8,'11111222,11111222,11111222' 
TCOON,ioos:station:TCOON:068:1,2008-04-02T14:00:00Z,27.2970,-97.4049,0.0,4.1,112.0,5.2,'11111222,11111222,11111222' 
TCOON,ioos:station:TCOON:068:1,2008-04-02T16:00:00Z,27.2970,-97.4049,0.0,4.1,116.0,5.1,'11111222,11111222,11111222' 
TCOON,ioos:station:TCOON:068:1,2008-04-02T17:00:00Z,27.2970,-97.4049,0.0,7.8,124.0,9.9,'11111222,11111222,11111222' 
TCOON,ioos:station:TCOON:068:1,2008-04-02T18:00:00Z,27.2970,-97.4049,0.0,6.2,125.0,7.9,'11111222,11111222,11111222' 
TCOON,ioos:station:TCOON:068:1,2008-04-02T19:00:00Z,27.2970,-97.4049,0.0,6.1,120.0,8.2,'11111222,11111222,11111222' 
TCOON,ioos:station:TCOON:068:1,2008-04-02T20:00:00Z,27.2970,-97.4049,0.0,7.6,105.0,10.1,'11111222,11111222,11111222' 
TCOON,ioos:station:TCOON:068:1,2008-04-02T21:00:00Z,27.2970,-97.4049,0.0,7.5,100.0,9.2,'11111222,11111222,11111222' 
TCOON,ioos:station:TCOON:068:1,2008-04-02T22:00:00Z,27.2970,-97.4049,0.0,7.3,98.0,9.0,'11111222,11111222,11111222' 
TCOON,ioos:station:TCOON:068:1,2008-04-02T23:00:00Z,27.2970,-97.4049,0.0,6.7,95.0,8.9,'11111222,11111222,11111222' 
TCOON,ioos:station:TCOON:068:1,2008-04-03T00:00:00Z,27.2970,-97.4049,0.0,6.6,94.0,22.2,'11111222,11111222,11111222' 
TCOON,ioos:station:TCOON:068:1,2008-04-03T01:00:00Z,27.2970,-97.4049,0.0,5.5,91.0,6.8,'11111222,11111222,11111222' 
TCOON,ioos:station:TCOON:068:1,2008-04-03T02:00:00Z,27.2970,-97.4049,0.0,5.7,96.0,11.1,'11111222,11111222,11111222' 
TCOON,ioos:station:TCOON:068:1,2008-04-03T03:00:00Z,27.2970,-97.4049,0.0,5.5,101.0,6.8,'11111222,11111222,11111222' 
TCOON,ioos:station:TCOON:068:1,2008-04-03T04:00:00Z,27.2970,-97.4049,0.0,6.2,103.0,7.5,'11111222,11111222,11111222' 
TCOON,ioos:station:TCOON:068:1,2008-04-03T05:00:00Z,27.2970,-97.4049,0.0,5.9,109.0,7.3,'11111222,11111222,11111222' 
TCOON,ioos:station:TCOON:068:1,2008-04-03T06:00:00Z,27.2970,-97.4049,0.0,5.9,109.0,7.6,'11111222,11111222,11111222' 
TCOON,ioos:station:TCOON:068:1,2008-04-03T07:00:00Z,27.2970,-97.4049,0.0,6.5,106.0,7.9,'11111222,11111222,11111222' 
TCOON,ioos:station:TCOON:068:1,2008-04-03T08:00:00Z,27.2970,-97.4049,0.0,5.5,113.0,6.9,'11111222,11111222,11111222' 
TCOON,ioos:station:TCOON:068:1,2008-04-03T09:00:00Z,27.2970,-97.4049,0.0,6.8,114.0,9.2,'11111222,11111222,11111222' 
TCOON,ioos:station:TCOON:068:1,2008-04-03T10:00:00Z,27.2970,-97.4049,0.0,7.7,111.0,9.5,'11111222,11111222,11111222' 
TCOON,ioos:station:TCOON:068:1,2008-04-03T11:00:00Z,27.2970,-97.4049,0.0,8.1,117.0,10.9,'11111222,11111222,11111222' 
TCOON,ioos:station:TCOON:068:1,2008-04-03T12:00:00Z,27.2970,-97.4049,0.0,8.3,120.0,9.6,'11111222,11111222,11111222' 
TCOON,ioos:station:TCOON:068:1,2008-04-03T13:00:00Z,27.2970,-97.4049,0.0,7.1,125.0,9.4,'11111222,11111222,11111222' 
TCOON,ioos:station:TCOON:068:1,2008-04-03T14:00:00Z,27.2970,-97.4049,0.0,7.2,122.0,8.5,'11111222,11111222,11111222' 
TCOON,ioos:station:TCOON:068:1,2008-04-03T15:00:00Z,27.2970,-97.4049,0.0,8.8,123.0,10.4,'11111222,11111222,11111222' 
TCOON,ioos:station:TCOON:068:1,2008-04-03T16:00:00Z,27.2970,-97.4049,0.0,15.3,128.0,22.2,'11111222,11111222,11111222' 
TCOON,ioos:station:TCOON:068:1,2008-04-03T17:00:00Z,27.2970,-97.4049,0.0,11.6,133.0,14.7,'11111222,11111222,11111222' 
TCOON,ioos:station:TCOON:068:1,2008-04-03T18:00:00Z,27.2970,-97.4049,0.0,13.9,143.0,16.6,'11111222,11111222,11111222' 
TCOON,ioos:station:TCOON:068:1,2008-04-03T19:00:00Z,27.2970,-97.4049,0.0,13.2,143.0,99.0,'11111222,11111222,11144222' 
TCOON,ioos:station:TCOON:068:1,2008-04-03T20:00:00Z,27.2970,-97.4049,0.0,13.0,145.0,16.6,'11111222,11111222,11111222' 
TCOON,ioos:station:TCOON:068:1,2008-04-03T21:00:00Z,27.2970,-97.4049,0.0,12.4,142.0,16.9,'11111222,11111222,11111222' 
TCOON,ioos:station:TCOON:068:1,2008-04-03T22:00:00Z,27.2970,-97.4049,0.0,12.5,142.0,15.1,'11111222,11111222,11111222' 
TCOON,ioos:station:TCOON:068:1,2008-04-03T23:00:00Z,27.2970,-97.4049,0.0,10.9,136.0,14.4,'11111222,11111222,11111222' 
TCOON,ioos:station:TCOON:068:1,2008-04-04T00:00:00Z,27.2970,-97.4049,0.0,10.7,138.0,13.4,'11111222,11111222,11111222' 
TCOON,ioos:station:TCOON:068:1,2008-04-04T01:00:00Z,27.2970,-97.4049,0.0,10.0,138.0,99.0,'11111222,11111222,11144222' 
TCOON,ioos:station:TCOON:068:1,2008-04-04T02:00:00Z,27.2970,-97.4049,0.0,9.0,125.0,11.3,'11111222,11111222,11111222' 
TCOON,ioos:station:TCOON:068:1,2008-04-04T03:00:00Z,27.2970,-97.4049,0.0,8.6,128.0,10.7,'11111222,11111222,11111222' 
TCOON,ioos:station:TCOON:068:1,2008-04-04T04:00:00Z,27.2970,-97.4049,0.0,10.3,140.0,12.5,'11111222,11111222,11111222' 
TCOON,ioos:station:TCOON:068:1,2008-04-04T05:00:00Z,27.2970,-97.4049,0.0,10.9,145.0,99.0,'11111222,11111222,11144222' 
TCOON,ioos:station:TCOON:068:1,2008-04-04T06:00:00Z,27.2970,-97.4049,0.0,10.4,147.0,13.0,'11111222,11111222,11111222' 
TCOON,ioos:station:TCOON:068:1,2008-04-04T08:00:00Z,27.2970,-97.4049,0.0,8.4,146.0,10.3,'11111222,11111222,11111222' 
TCOON,ioos:station:TCOON:068:1,2008-04-04T09:00:00Z,27.2970,-97.4049,0.0,8.8,139.0,10.8,'11111222,11111222,11111222' 
TCOON,ioos:station:TCOON:068:1,2008-04-04T10:00:00Z,27.2970,-97.4049,0.0,8.2,138.0,10.4,'11111222,11111222,11111222' 
TCOON,ioos:station:TCOON:068:1,2008-04-04T11:00:00Z,27.2970,-97.4049,0.0,8.6,140.0,10.6,'11111222,11111222,11111222' 
TCOON,ioos:station:TCOON:068:1,2008-04-04T12:00:00Z,27.2970,-97.4049,0.0,7.5,145.0,9.3,'11111222,11111222,11111222' 
TCOON,ioos:station:TCOON:068:1,2008-04-04T13:00:00Z,27.2970,-97.4049,0.0,7.4,145.0,9.6,'11111222,11111222,11111222' 
TCOON,ioos:station:TCOON:068:1,2008-04-04T14:00:00Z,27.2970,-97.4049,0.0,4.6,169.0,6.1,'11111222,11111222,11111222' 
TCOON,ioos:station:TCOON:068:1,2008-04-04T15:00:00Z,27.2970,-97.4049,0.0,4.7,141.0,5.4,'11111222,11111222,11111222' 
TCOON,ioos:station:TCOON:068:1,2008-04-04T16:00:00Z,27.2970,-97.4049,0.0,7.3,132.0,9.7,'11111222,11111222,11111222' 
TCOON,ioos:station:TCOON:068:1,2008-04-04T17:00:00Z,27.2970,-97.4049,0.0,8.9,132.0,12.5,'11111222,11111222,11111222' 
TCOON,ioos:station:TCOON:068:1,2008-04-04T18:00:00Z,27.2970,-97.4049,0.0,7.1,128.0,8.7,'11111222,11111222,11111222' 
TCOON,ioos:station:TCOON:068:1,2008-04-04T19:00:00Z,27.2970,-97.4049,0.0,7.5,131.0,9.6,'11111222,11111222,11111222' 
TCOON,ioos:station:TCOON:068:1,2008-04-04T20:00:00Z,27.2970,-97.4049,0.0,4.5,134.0,5.8,'11111222,11111222,11111222' 
TCOON,ioos:station:TCOON:068:1,2008-04-04T21:00:00Z,27.2970,-97.4049,0.0,2.3,95.0,2.9,'11111222,11111222,11111222' 
TCOON,ioos:station:TCOON:068:1,2008-04-04T22:00:00Z,27.2970,-97.4049,0.0,11.8,349.0,14.4,'11111222,11111222,11111222' 
TCOON,ioos:station:TCOON:068:1,2008-04-05T00:00:00Z,27.2970,-97.4049,0.0,12.3,357.0,14.5,'11111222,11111222,11111222' 
TCOON,ioos:station:TCOON:068:1,2008-04-05T01:00:00Z,27.2970,-97.4049,0.0,11.3,357.0,13.1,'11111222,11111222,11111222' 
TCOON,ioos:station:TCOON:068:1,2008-04-05T02:00:00Z,27.2970,-97.4049,0.0,11.8,355.0,22.2,'11111222,11111222,11111222' 
TCOON,ioos:station:TCOON:068:1,2008-04-05T03:00:00Z,27.2970,-97.4049,0.0,10.2,350.0,12.0,'11111222,11111222,11111222' 
TCOON,ioos:station:TCOON:068:1,2008-04-05T04:00:00Z,27.2970,-97.4049,0.0,9.6,347.0,13.1,'11111222,11111222,11111222' 
TCOON,ioos:station:TCOON:068:1,2008-04-05T05:00:00Z,27.2970,-97.4049,0.0,10.0,349.0,11.6,'11111222,11111222,11111222' 
TCOON,ioos:station:TCOON:068:1,2008-04-05T06:00:00Z,27.2970,-97.4049,0.0,9.7,349.0,11.3,'11111222,11111222,11111222' 
TCOON,ioos:station:TCOON:068:1,2008-04-05T07:00:00Z,27.2970,-97.4049,0.0,8.9,13.0,11.9,'11111222,11111222,11111222' 
TCOON,ioos:station:TCOON:068:1,2008-04-05T08:00:00Z,27.2970,-97.4049,0.0,9.4,14.0,11.5,'11111222,11111222,11111222' 
TCOON,ioos:station:TCOON:068:1,2008-04-05T09:00:00Z,27.2970,-97.4049,0.0,9.9,7.0,11.8,'11111222,11111222,11111222' 
TCOON,ioos:station:TCOON:068:1,2008-04-05T10:00:00Z,27.2970,-97.4049,0.0,5.7,344.0,7.1,'11111222,11111222,11111222' 
TCOON,ioos:station:TCOON:068:1,2008-04-05T11:00:00Z,27.2970,-97.4049,0.0,5.7,337.0,6.8,'11111222,11111222,11111222' 
TCOON,ioos:station:TCOON:068:1,2008-04-05T12:00:00Z,27.2970,-97.4049,0.0,8.6,343.0,10.0,'11111222,11111222,11111222' 
TCOON,ioos:station:TCOON:068:1,2008-04-05T13:00:00Z,27.2970,-97.4049,0.0,4.0,321.0,4.6,'11111222,11111222,11111222' 
TCOON,ioos:station:TCOON:068:1,2008-04-05T14:00:00Z,27.2970,-97.4049,0.0,4.2,343.0,4.8,'11111222,11111222,11111222' 
TCOON,ioos:station:TCOON:068:1,2008-04-05T15:00:00Z,27.2970,-97.4049,0.0,2.7,19.0,3.3,'11111222,11111222,11111222' 
TCOON,ioos:station:TCOON:068:1,2008-04-05T16:00:00Z,27.2970,-97.4049,0.0,2.0,10.0,2.9,'11111222,11111222,11111222' 
TCOON,ioos:station:TCOON:068:1,2008-04-05T17:00:00Z,27.2970,-97.4049,0.0,3.9,11.0,4.6,'11111222,11111222,11111222' 
TCOON,ioos:station:TCOON:068:1,2008-04-05T18:00:00Z,27.2970,-97.4049,0.0,4.7,41.0,6.2,'11111222,11111222,11111222' 
TCOON,ioos:station:TCOON:068:1,2008-04-05T19:00:00Z,27.2970,-97.4049,0.0,5.8,52.0,6.7,'11111222,11111222,11111222' 
TCOON,ioos:station:TCOON:068:1,2008-04-05T20:00:00Z,27.2970,-97.4049,0.0,5.2,71.0,6.8,'11111222,11111222,11111222' 
TCOON,ioos:station:TCOON:068:1,2008-04-05T21:00:00Z,27.2970,-97.4049,0.0,5.7,72.0,7.1,'11111222,11111222,11111222' 
TCOON,ioos:station:TCOON:068:1,2008-04-05T22:00:00Z,27.2970,-97.4049,0.0,7.2,78.0,8.7,'11111222,11111222,11111222' 
TCOON,ioos:station:TCOON:068:1,2008-04-05T23:00:00Z,27.2970,-97.4049,0.0,7.9,85.0,9.0,'11111222,11111222,11111222' 
TCOON,ioos:station:TCOON:068:1,2008-04-06T00:00:00Z,27.2970,-97.4049,0.0,8.6,88.0,9.6,'11111222,11111222,11111222' 
TCOON,ioos:station:TCOON:068:1,2008-04-06T01:00:00Z,27.2970,-97.4049,0.0,8.4,93.0,9.7,'11111222,11111222,11111222' 
TCOON,ioos:station:TCOON:068:1,2008-04-06T02:00:00Z,27.2970,-97.4049,0.0,5.8,98.0,7.0,'11111222,11111222,11111222' 
TCOON,ioos:station:TCOON:068:1,2008-04-06T03:00:00Z,27.2970,-97.4049,0.0,5.5,98.0,6.8,'11111222,11111222,11111222' 
TCOON,ioos:station:TCOON:068:1,2008-04-06T04:00:00Z,27.2970,-97.4049,0.0,5.6,111.0,7.3,'11111222,11111222,11111222' 
TCOON,ioos:station:TCOON:068:1,2008-04-06T05:00:00Z,27.2970,-97.4049,0.0,5.6,117.0,7.5,'11111222,11111222,11111222' 
TCOON,ioos:station:TCOON:068:1,2008-04-06T06:00:00Z,27.2970,-97.4049,0.0,5.8,118.0,7.3,'11111222,11111222,11111222' 
TCOON,ioos:station:TCOON:068:1,2008-04-06T07:00:00Z,27.2970,-97.4049,0.0,4.7,126.0,5.6,'11111222,11111222,11111222' 
TCOON,ioos:station:TCOON:068:1,2008-04-06T08:00:00Z,27.2970,-97.4049,0.0,2.8,131.0,3.5,'11111222,11111222,11111222' 
TCOON,ioos:station:TCOON:068:1,2008-04-06T09:00:00Z,27.2970,-97.4049,0.0,3.7,139.0,4.5,'11111222,11111222,11111222' 
TCOON,ioos:station:TCOON:068:1,2008-04-06T10:00:00Z,27.2970,-97.4049,0.0,3.1,129.0,3.6,'11111222,11111222,11111222' 
TCOON,ioos:station:TCOON:068:1,2008-04-06T11:00:00Z,27.2970,-97.4049,0.0,2.9,106.0,3.5,'11111222,11111222,11111222' 
TCOON,ioos:station:TCOON:068:1,2008-04-06T12:00:00Z,27.2970,-97.4049,0.0,3.8,86.0,4.4,'11111222,11111222,11111222' 
TCOON,ioos:station:TCOON:068:1,2008-04-06T13:00:00Z,27.2970,-97.4049,0.0,2.8,85.0,3.2,'11111222,11111222,11111222' 
TCOON,ioos:station:TCOON:068:1,2008-04-06T14:00:00Z,27.2970,-97.4049,0.0,4.2,81.0,4.8,'11111222,11111222,11111222' 
TCOON,ioos:station:TCOON:068:1,2008-04-06T15:00:00Z,27.2970,-97.4049,0.0,3.8,86.0,4.6,'11111222,11111222,11111222' 
TCOON,ioos:station:TCOON:068:1,2008-04-06T16:00:00Z,27.2970,-97.4049,0.0,4.0,103.0,5.0,'11111222,11111222,11111222' 
TCOON,ioos:station:TCOON:068:1,2008-04-06T17:00:00Z,27.2970,-97.4049,0.0,3.0,109.0,3.9,'11111222,11111222,11111222' 
TCOON,ioos:station:TCOON:068:1,2008-04-06T18:00:00Z,27.2970,-97.4049,0.0,2.5,101.0,3.5,'11111222,11111222,11111222' 
TCOON,ioos:station:TCOON:068:1,2008-04-06T19:00:00Z,27.2970,-97.4049,0.0,2.7,110.0,3.5,'11111222,11111222,11111222' 
TCOON,ioos:station:TCOON:068:1,2008-04-06T20:00:00Z,27.2970,-97.4049,0.0,3.1,124.0,3.8,'11111222,11111222,11111222' 
TCOON,ioos:station:TCOON:068:1,2008-04-06T21:00:00Z,27.2970,-97.4049,0.0,4.7,99.0,5.9,'11111222,11111222,11111222' 
TCOON,ioos:station:TCOON:068:1,2008-04-06T22:00:00Z,27.2970,-97.4049,0.0,6.6,81.0,7.3,'11111222,11111222,11111222' 
TCOON,ioos:station:TCOON:068:1,2008-04-06T23:00:00Z,27.2970,-97.4049,0.0,8.3,79.0,9.4,'11111222,11111222,11111222' 
TCOON,ioos:station:TCOON:068:1,2008-04-07T00:00:00Z,27.2970,-97.4049,0.0,7.5,83.0,9.0,'11111222,11111222,11111222' 
TCOON,ioos:station:TCOON:068:1,2008-04-07T01:00:00Z,27.2970,-97.4049,0.0,6.6,77.0,7.8,'11111222,11111222,11111222' 
TCOON,ioos:station:TCOON:068:1,2008-04-07T02:00:00Z,27.2970,-97.4049,0.0,6.5,95.0,7.7,'11111222,11111222,11111222' 
TCOON,ioos:station:TCOON:068:1,2008-04-07T03:00:00Z,27.2970,-97.4049,0.0,5.4,110.0,6.7,'11111222,11111222,11111222' 
TCOON,ioos:station:TCOON:068:1,2008-04-07T04:00:00Z,27.2970,-97.4049,0.0,5.7,101.0,7.3,'11111222,11111222,11111222' 
TCOON,ioos:station:TCOON:068:1,2008-04-07T05:00:00Z,27.2970,-97.4049,0.0,6.0,119.0,7.1,'11111222,11111222,11111222' 
TCOON,ioos:station:TCOON:068:1,2008-04-07T06:00:00Z,27.2970,-97.4049,0.0,5.8,126.0,7.1,'11111222,11111222,11111222' 
TCOON,ioos:station:TCOON:068:1,2008-04-07T07:00:00Z,27.2970,-97.4049,0.0,3.4,128.0,4.7,'11111222,11111222,11111222' 
TCOON,ioos:station:TCOON:068:1,2008-04-07T08:00:00Z,27.2970,-97.4049,0.0,1.8,120.0,2.3,'11111222,11111222,11111222' 
TCOON,ioos:station:TCOON:068:1,2008-04-07T09:00:00Z,27.2970,-97.4049,0.0,1.0,100.0,1.4,'11111222,11111222,11111222' 
TCOON,ioos:station:TCOON:068:1,2008-04-07T10:00:00Z,27.2970,-97.4049,0.0,2.0,124.0,2.3,'11111222,11111222,11111222' 
TCOON,ioos:station:TCOON:068:1,2008-04-07T11:00:00Z,27.2970,-97.4049,0.0,1.6,143.0,2.0,'11111222,11111222,11111222' 
TCOON,ioos:station:TCOON:068:1,2008-04-07T12:00:00Z,27.2970,-97.4049,0.0,2.3,141.0,2.7,'11111222,11111222,11111222' 
TCOON,ioos:station:TCOON:068:1,2008-04-07T13:00:00Z,27.2970,-97.4049,0.0,1.9,128.0,2.3,'11111222,11111222,11111222' 
TCOON,ioos:station:TCOON:068:1,2008-04-07T14:00:00Z,27.2970,-97.4049,0.0,2.5,119.0,3.1,'11111222,11111222,11111222' 
TCOON,ioos:station:TCOON:068:1,2008-04-07T15:00:00Z,27.2970,-97.4049,0.0,2.3,136.0,3.0,'11111222,11111222,11111222' 
TCOON,ioos:station:TCOON:068:1,2008-04-07T16:00:00Z,27.2970,-97.4049,0.0,3.5,151.0,4.2,'11111222,11111222,11111222' 
TCOON,ioos:station:TCOON:068:1,2008-04-07T17:00:00Z,27.2970,-97.4049,0.0,2.1,126.0,2.6,'11111222,11111222,11111222' 
TCOON,ioos:station:TCOON:068:1,2008-04-07T18:00:00Z,27.2970,-97.4049,0.0,4.5,82.0,5.0,'11111222,11111222,11111222' 
TCOON,ioos:station:TCOON:068:1,2008-04-07T19:00:00Z,27.2970,-97.4049,0.0,5.9,79.0,6.9,'11111222,11111222,11111222' 
TCOON,ioos:station:TCOON:068:1,2008-04-07T20:00:00Z,27.2970,-97.4049,0.0,7.7,78.0,8.9,'11111222,11111222,11111222' 
TCOON,ioos:station:TCOON:068:1,2008-04-07T21:00:00Z,27.2970,-97.4049,0.0,8.8,68.0,9.8,'11111222,11111222,11111222' 
TCOON,ioos:station:TCOON:068:1,2008-04-07T22:00:00Z,27.2970,-97.4049,0.0,10.7,75.0,12.4,'11111222,11111222,11111222' 
TCOON,ioos:station:TCOON:068:1,2008-04-07T23:00:00Z,27.2970,-97.4049,0.0,9.6,76.0,11.3,'11111222,11111222,11111222' 
TCOON,ioos:station:TCOON:068:1,2008-04-08T00:00:00Z,27.2970,-97.4049,0.0,10.2,76.0,12.6,'11111222,11111222,11111222' 
TCOON,ioos:station:TCOON:068:1,2008-04-08T01:00:00Z,27.2970,-97.4049,0.0,9.5,80.0,11.6,'11111222,11111222,11111222' 
TCOON,ioos:station:TCOON:068:1,2008-04-08T02:00:00Z,27.2970,-97.4049,0.0,7.9,87.0,8.9,'11111222,11111222,11111222' 
TCOON,ioos:station:TCOON:068:1,2008-04-08T03:00:00Z,27.2970,-97.4049,0.0,7.2,97.0,8.8,'11111222,11111222,11111222' 
TCOON,ioos:station:TCOON:068:1,2008-04-08T04:00:00Z,27.2970,-97.4049,0.0,7.3,112.0,9.2,'11111222,11111222,11111222' 
TCOON,ioos:station:TCOON:068:1,2008-04-08T05:00:00Z,27.2970,-97.4049,0.0,6.9,111.0,8.7,'11111222,11111222,11111222' 
TCOON,ioos:station:TCOON:068:1,2008-04-08T06:00:00Z,27.2970,-97.4049,0.0,6.6,123.0,8.2,'11111222,11111222,11111222' 
TCOON,ioos:station:TCOON:068:1,2008-04-08T07:00:00Z,27.2970,-97.4049,0.0,7.4,133.0,9.4,'11111222,11111222,11111222' 
TCOON,ioos:station:TCOON:068:1,2008-04-08T08:00:00Z,27.2970,-97.4049,0.0,7.0,142.0,8.5,'11111222,11111222,11111222' 
TCOON,ioos:station:TCOON:068:1,2008-04-08T09:00:00Z,27.2970,-97.4049,0.0,7.2,146.0,9.7,'11111222,11111222,11111222' 
TCOON,ioos:station:TCOON:068:1,2008-04-08T10:00:00Z,27.2970,-97.4049,0.0,7.3,143.0,9.1,'11111222,11111222,11111222' 
TCOON,ioos:station:TCOON:068:1,2008-04-08T11:00:00Z,27.2970,-97.4049,0.0,4.7,127.0,6.1,'11111222,11111222,11111222' 
TCOON,ioos:station:TCOON:068:1,2008-04-08T12:00:00Z,27.2970,-97.4049,0.0,4.6,139.0,5.3,'11111222,11111222,11111222' 
TCOON,ioos:station:TCOON:068:1,2008-04-08T13:00:00Z,27.2970,-97.4049,0.0,6.1,132.0,7.2,'11111222,11111222,11111222' 
TCOON,ioos:station:TCOON:068:1,2008-04-08T14:00:00Z,27.2970,-97.4049,0.0,6.5,137.0,7.7,'11111222,11111222,11111222' 
TCOON,ioos:station:TCOON:068:1,2008-04-08T15:00:00Z,27.2970,-97.4049,0.0,6.7,141.0,8.4,'11111222,11111222,11111222' 
TCOON,ioos:station:TCOON:068:1,2008-04-08T16:00:00Z,27.2970,-97.4049,0.0,6.1,108.0,7.8,'11111222,11111222,11111222' 
TCOON,ioos:station:TCOON:068:1,2008-04-08T17:00:00Z,27.2970,-97.4049,0.0,4.9,108.0,6.3,'11111222,11111222,11111222' 
TCOON,ioos:station:TCOON:068:1,2008-04-08T18:00:00Z,27.2970,-97.4049,0.0,7.7,108.0,11.0,'11111222,11111222,11111222' 
TCOON,ioos:station:TCOON:068:1,2008-04-08T19:00:00Z,27.2970,-97.4049,0.0,8.9,100.0,11.4,'11111222,11111222,11111222' 
TCOON,ioos:station:TCOON:068:1,2008-04-08T20:00:00Z,27.2970,-97.4049,0.0,9.2,103.0,11.4,'11111222,11111222,11111222' 
TCOON,ioos:station:TCOON:068:1,2008-04-08T21:00:00Z,27.2970,-97.4049,0.0,10.0,101.0,17.4,'11111222,11111222,11111222' 
TCOON,ioos:station:TCOON:068:1,2008-04-08T22:00:00Z,27.2970,-97.4049,0.0,10.1,95.0,12.4,'11111222,11111222,11111222' 
TCOON,ioos:station:TCOON:068:1,2008-04-08T23:00:00Z,27.2970,-97.4049,0.0,10.0,96.0,13.0,'11111222,11111222,11111222' 
TCOON,ioos:station:TCOON:068:1,2008-04-09T00:00:00Z,27.2970,-97.4049,0.0,9.6,93.0,99.0,'11111222,11111222,11144222' 
TCOON,ioos:station:TCOON:068:1,2008-04-09T01:00:00Z,27.2970,-97.4049,0.0,9.4,95.0,11.2,'11111222,11111222,11111222' 
TCOON,ioos:station:TCOON:068:1,2008-04-09T02:00:00Z,27.2970,-97.4049,0.0,7.9,101.0,9.2,'11111222,11111222,11111222' 
TCOON,ioos:station:TCOON:068:1,2008-04-09T03:00:00Z,27.2970,-97.4049,0.0,7.5,100.0,9.1,'11111222,11111222,11111222' 
TCOON,ioos:station:TCOON:068:1,2008-04-09T04:00:00Z,27.2970,-97.4049,0.0,6.8,105.0,10.4,'11111222,11111222,11111222' 
TCOON,ioos:station:TCOON:068:1,2008-04-09T05:00:00Z,27.2970,-97.4049,0.0,6.3,106.0,7.6,'11111222,11111222,11111222' 
TCOON,ioos:station:TCOON:068:1,2008-04-09T06:00:00Z,27.2970,-97.4049,0.0,5.7,107.0,7.6,'11111222,11111222,11111222' 
TCOON,ioos:station:TCOON:068:1,2008-04-09T07:00:00Z,27.2970,-97.4049,0.0,5.9,107.0,8.2,'11111222,11111222,11111222' 
TCOON,ioos:station:TCOON:068:1,2008-04-09T08:00:00Z,27.2970,-97.4049,0.0,6.9,99.0,8.1,'11111222,11111222,11111222' 
TCOON,ioos:station:TCOON:068:1,2008-04-09T09:00:00Z,27.2970,-97.4049,0.0,7.6,101.0,9.0,'11111222,11111222,11111222' 
TCOON,ioos:station:TCOON:068:1,2008-04-09T10:00:00Z,27.2970,-97.4049,0.0,8.1,110.0,10.3,'11111222,11111222,11111222' 
TCOON,ioos:station:TCOON:068:1,2008-04-09T11:00:00Z,27.2970,-97.4049,0.0,7.9,109.0,9.5,'11111222,11111222,11111222' 
TCOON,ioos:station:TCOON:068:1,2008-04-09T12:00:00Z,27.2970,-97.4049,0.0,5.8,107.0,7.4,'11111222,11111222,11111222' 
TCOON,ioos:station:TCOON:068:1,2008-04-09T13:00:00Z,27.2970,-97.4049,0.0,6.0,101.0,7.0,'11111222,11111222,11111222' 
TCOON,ioos:station:TCOON:068:1,2008-04-09T14:00:00Z,27.2970,-97.4049,0.0,6.5,108.0,8.0,'11111222,11111222,11111222' 
TCOON,ioos:station:TCOON:068:1,2008-04-09T15:00:00Z,27.2970,-97.4049,0.0,5.9,105.0,14.3,'11111222,11111222,11111222' 
TCOON,ioos:station:TCOON:068:1,2008-04-09T16:00:00Z,27.2970,-97.4049,0.0,7.1,108.0,10.2,'11111222,11111222,11111222' 
TCOON,ioos:station:TCOON:068:1,2008-04-09T17:00:00Z,27.2970,-97.4049,0.0,9.4,121.0,12.0,'11111222,11111222,11111222' 
TCOON,ioos:station:TCOON:068:1,2008-04-09T18:00:00Z,27.2970,-97.4049,0.0,10.8,121.0,13.6,'11111222,11111222,11111222' 